Regional Weather Roundup
Issued by NWS

Home | Current Version | Previous Version | Graphics & Text | Print | Product List | Glossary On
Versions: 1 2 3 4 5 6 7 8 9 10 11 12 13 14 15 16 17 18 19 20 21 22 23 24 25 26 27 28 29 30 31 32 33 34 35 36 37 38 39 40 41 42 43 44 45 46 47 48 49 50
000
ASUS43 KLMK 231710
RWRKY
KENTUCKY REGIONAL WEATHER ROUNDUP
NATIONAL WEATHER SERVICE LOUISVILLE KY
100 PM EDT TUE SEP 23 2014

NOTE "FAIR" INDICATES FEW OR NO CLOUDS BELOW 12,000 FEET
WITH NO SIGNIFICANT WEATHER AND/OR OBSTRUCTIONS TO VISIBILITY.

KYZ001>023-026-027-061>063-070>075-231800-
WESTERN AND SOUTH CENTRAL KENTUCKY

CITY           SKY/WX    TMP DP  RH WIND       PRES   REMARKS
PADUCAH        SUNNY     72  47  40 NE6       30.30S
HENDERSON      SUNNY     68  46  45 N5        30.32F
OWENSBORO      SUNNY     70  47  43 E7        30.32F
HOPKINSVILLE   SUNNY     71  48  43 NE9       30.28F
BOWLING GREEN  SUNNY     71  48  43 E13       30.30F
GLASGOW        SUNNY     70  46  42 NE5       30.30F
$$

KYZ024-025-028>034-038-045-046-053-231800-
NORTH CENTRAL KENTUCKY

CITY           SKY/WX    TMP DP  RH WIND       PRES   REMARKS
LOUISVILLE/SDF SUNNY     70  43  37 E7        30.33S
LOUISVILLE/LOU SUNNY     69  44  40 NE5       30.33F
FORT KNOX      SUNNY     67  45  45 NE8       30.31F
$$

KYZ035>037-039>044-047>052-055>060-089>105-231800-
NORTHEAST KENTUCKY

CITY           SKY/WX    TMP DP  RH WIND       PRES   REMARKS
LEXINGTON      SUNNY     69  45  41 VRB7      30.34S
COVINGTON      SUNNY     67  41  38 NE8       30.35S
FRANKFORT      SUNNY     67  41  38 NE9       30.33F
$$

KYZ054-064>069-076>088-106>120-231800-
SOUTHEAST KENTUCKY

CITY           SKY/WX    TMP DP  RH WIND       PRES   REMARKS
JACKSON        SUNNY     65  48  54 VRB5      30.33F
LONDON         SUNNY     67  48  50 NE9       30.32F
SOMERSET       SUNNY     68  45  42 NE8       30.32F
MIDDLESBORO    SUNNY     67  50  54 CALM      30.30F
MONTICELLO     SUNNY     69  48  46 E10       30.32F
$$




USA.gov is the U.S. government's official web portal to all federal, state and local government web resources and services.